Year,Month,Day,Hour,Minute,Value (Times are PST for temperature in C)
2013,04,14,00,00,2.90
2013,04,14,00,01,2.90
2013,04,14,00,02,2.90
2013,04,14,00,03,2.90
2013,04,14,00,04,2.90
2013,04,14,00,05,2.90
2013,04,14,00,06,2.80
2013,04,14,00,07,2.80
2013,04,14,00,08,2.80
2013,04,14,00,09,2.80
2013,04,14,00,10,2.80
2013,04,14,00,11,2.80
2013,04,14,00,12,2.70
2013,04,14,00,13,2.70
2013,04,14,00,14,2.70
2013,04,14,00,15,2.80
2013,04,14,00,16,2.80
2013,04,14,00,17,2.80
2013,04,14,00,18,2.90
2013,04,14,00,19,2.90
2013,04,14,00,20,2.90
2013,04,14,00,21,2.90
2013,04,14,00,22,2.90
2013,04,14,00,23,2.90
2013,04,14,00,24,3.00
2013,04,14,00,25,2.90
2013,04,14,00,26,2.90
2013,04,14,00,27,2.90
2013,04,14,00,28,2.90
2013,04,14,00,29,2.90
2013,04,14,00,30,3.00
2013,04,14,00,31,3.00
2013,04,14,00,32,3.00
2013,04,14,00,33,3.10
2013,04,14,00,34,3.10
2013,04,14,00,35,3.10
2013,04,14,00,36,3.10
2013,04,14,00,37,3.10
2013,04,14,00,38,3.10
2013,04,14,00,39,3.10
2013,04,14,00,40,3.10
2013,04,14,00,41,3.10
2013,04,14,00,42,3.20
2013,04,14,00,43,3.10
2013,04,14,00,44,3.20
2013,04,14,00,45,3.20
2013,04,14,00,46,3.20
2013,04,14,00,47,3.20
2013,04,14,00,48,3.20
2013,04,14,00,49,3.20
2013,04,14,00,50,3.20
2013,04,14,00,51,3.10
2013,04,14,00,52,3.20
2013,04,14,00,53,3.20
2013,04,14,00,54,3.20
2013,04,14,00,55,3.20
2013,04,14,00,56,3.20
2013,04,14,00,57,3.20
2013,04,14,00,58,3.30
2013,04,14,00,59,3.30
2013,04,14,01,00,3.30
2013,04,14,01,01,3.30
2013,04,14,01,02,3.30
2013,04,14,01,03,3.30
2013,04,14,01,04,3.30
2013,04,14,01,05,3.30
2013,04,14,01,06,3.30
2013,04,14,01,07,3.30
2013,04,14,01,08,3.30
2013,04,14,01,09,3.30
2013,04,14,01,10,3.30
2013,04,14,01,11,3.30
2013,04,14,01,12,3.30
2013,04,14,01,13,3.30
2013,04,14,01,14,3.30
2013,04,14,01,15,3.30
2013,04,14,01,16,3.30
2013,04,14,01,17,3.30
2013,04,14,01,18,3.30
2013,04,14,01,19,3.30
2013,04,14,01,20,3.30
2013,04,14,01,21,3.30
2013,04,14,01,22,3.30
2013,04,14,01,23,3.30
2013,04,14,01,24,3.30
2013,04,14,01,25,3.30
2013,04,14,01,26,3.40
2013,04,14,01,27,3.40
2013,04,14,01,28,3.40
2013,04,14,01,29,3.50
2013,04,14,01,30,3.60
2013,04,14,01,31,3.70
2013,04,14,01,32,3.70
2013,04,14,01,33,3.70
2013,04,14,01,34,3.60
2013,04,14,01,35,3.60
2013,04,14,01,36,3.50
2013,04,14,01,37,3.40
2013,04,14,01,38,3.40
2013,04,14,01,39,3.30
2013,04,14,01,40,3.30
2013,04,14,01,41,3.30
2013,04,14,01,42,3.30
2013,04,14,01,43,3.40
2013,04,14,01,44,3.40
2013,04,14,01,45,3.50
2013,04,14,01,46,3.60
2013,04,14,01,47,3.60
2013,04,14,01,48,3.60
2013,04,14,01,49,3.60
2013,04,14,01,50,3.60
2013,04,14,01,51,3.60
2013,04,14,01,52,3.60
2013,04,14,01,53,3.50
2013,04,14,01,54,3.50
2013,04,14,01,55,3.40
2013,04,14,01,56,3.30
2013,04,14,01,57,3.30
2013,04,14,01,58,3.30
2013,04,14,01,59,3.30
2013,04,14,02,00,3.30
2013,04,14,02,01,3.30
2013,04,14,02,02,3.20
2013,04,14,02,03,3.20
2013,04,14,02,04,3.20
2013,04,14,02,05,3.10
2013,04,14,02,06,3.10
2013,04,14,02,07,3.10
2013,04,14,02,08,3.00
2013,04,14,02,09,3.00
2013,04,14,02,10,3.00
2013,04,14,02,11,3.00
2013,04,14,02,12,2.90
2013,04,14,02,13,2.90
2013,04,14,02,14,2.90
2013,04,14,02,15,2.90
2013,04,14,02,16,2.90
2013,04,14,02,17,2.90
2013,04,14,02,18,2.90
2013,04,14,02,19,2.80
2013,04,14,02,20,2.80
2013,04,14,02,21,2.80
2013,04,14,02,22,2.80
2013,04,14,02,23,2.80
2013,04,14,02,24,2.80
2013,04,14,02,25,2.80
2013,04,14,02,26,2.80
2013,04,14,02,27,2.80
2013,04,14,02,28,2.80
2013,04,14,02,29,2.80
2013,04,14,02,30,2.80
2013,04,14,02,31,2.80
2013,04,14,02,32,2.80
2013,04,14,02,33,2.80
2013,04,14,02,34,2.80
2013,04,14,02,35,2.80
2013,04,14,02,36,2.80
2013,04,14,02,37,2.80
2013,04,14,02,38,2.90
2013,04,14,02,39,2.90
2013,04,14,02,40,2.90
2013,04,14,02,41,2.90
2013,04,14,02,42,2.90
2013,04,14,02,43,2.90
2013,04,14,02,44,2.90
2013,04,14,02,45,2.90
2013,04,14,02,46,2.80
2013,04,14,02,47,2.70
2013,04,14,02,48,2.60
2013,04,14,02,49,2.50
2013,04,14,02,50,2.50
2013,04,14,02,51,2.40
2013,04,14,02,52,2.40
2013,04,14,02,53,2.40
2013,04,14,02,54,2.30
2013,04,14,02,55,2.30
2013,04,14,02,56,2.30
2013,04,14,02,57,2.30
2013,04,14,02,58,2.20
2013,04,14,02,59,2.20
2013,04,14,03,00,2.20
2013,04,14,03,01,2.20
2013,04,14,03,02,2.20
2013,04,14,03,06,2.20
2013,04,14,03,07,2.10
2013,04,14,03,08,2.20
2013,04,14,03,09,2.10
2013,04,14,03,10,2.10
2013,04,14,03,11,2.20
2013,04,14,03,12,2.20
2013,04,14,03,13,2.20
2013,04,14,03,14,2.20
2013,04,14,03,15,2.20
2013,04,14,03,16,2.20
2013,04,14,03,17,2.20
2013,04,14,03,18,2.20
2013,04,14,03,19,2.20
2013,04,14,03,20,2.20
2013,04,14,03,21,2.30
2013,04,14,03,22,2.30
2013,04,14,03,23,2.30
2013,04,14,03,24,2.30
2013,04,14,03,25,2.30
2013,04,14,03,26,2.30
2013,04,14,03,27,2.30
2013,04,14,03,28,2.30
2013,04,14,03,29,2.40
2013,04,14,03,30,2.40
2013,04,14,03,31,2.40
2013,04,14,03,32,2.40
2013,04,14,03,33,2.40
2013,04,14,03,34,2.40
2013,04,14,03,35,2.50
2013,04,14,03,36,2.50
2013,04,14,03,37,2.60
2013,04,14,03,38,2.60
2013,04,14,03,39,2.60
2013,04,14,03,40,2.60
2013,04,14,03,41,2.60
2013,04,14,03,42,2.60
2013,04,14,03,43,2.60
2013,04,14,03,44,2.60
2013,04,14,03,45,2.60
2013,04,14,03,46,2.60
2013,04,14,03,47,2.60
2013,04,14,03,48,2.60
2013,04,14,03,49,2.60
2013,04,14,03,50,2.60
2013,04,14,03,51,2.60
2013,04,14,03,52,2.60
2013,04,14,03,53,2.60
2013,04,14,03,54,2.60
2013,04,14,03,55,2.60
2013,04,14,03,56,2.60
2013,04,14,03,57,2.70
2013,04,14,03,58,2.70
2013,04,14,03,59,2.70
2013,04,14,04,00,2.70
2013,04,14,04,01,2.70
2013,04,14,04,02,2.70
2013,04,14,04,03,2.70
2013,04,14,04,04,2.70
2013,04,14,04,05,2.70
2013,04,14,04,06,2.70
2013,04,14,04,07,2.70
2013,04,14,04,08,2.80
2013,04,14,04,09,2.80
2013,04,14,04,10,2.80
2013,04,14,04,11,2.90
2013,04,14,04,12,2.90
2013,04,14,04,13,2.90
2013,04,14,04,14,2.90
2013,04,14,04,15,2.90
2013,04,14,04,16,2.90
2013,04,14,04,17,2.90
2013,04,14,04,18,2.90
2013,04,14,04,19,2.80
2013,04,14,04,20,2.80
2013,04,14,04,21,2.80
2013,04,14,04,22,2.80
2013,04,14,04,23,2.80
2013,04,14,04,24,2.70
2013,04,14,04,25,2.70
2013,04,14,04,26,2.70
2013,04,14,04,27,2.70
2013,04,14,04,28,2.70
2013,04,14,04,29,2.70
2013,04,14,04,30,2.70
2013,04,14,04,31,2.70
2013,04,14,04,32,2.70
2013,04,14,04,33,2.70
2013,04,14,04,34,2.70
2013,04,14,04,35,2.70
2013,04,14,04,36,2.70
2013,04,14,04,37,2.70
2013,04,14,04,38,2.70
2013,04,14,04,39,2.70
2013,04,14,04,40,2.70
2013,04,14,04,41,2.70
2013,04,14,04,42,2.70
2013,04,14,04,43,2.70
2013,04,14,04,44,2.70
2013,04,14,04,45,2.70
2013,04,14,04,46,2.70
2013,04,14,04,47,2.70
2013,04,14,04,48,2.70
2013,04,14,04,49,2.70
2013,04,14,04,50,2.70
2013,04,14,04,51,2.60
2013,04,14,04,52,2.60
2013,04,14,04,53,2.60
2013,04,14,04,54,2.60
2013,04,14,04,55,2.60
2013,04,14,04,56,2.60
2013,04,14,04,57,2.60
2013,04,14,04,58,2.60
2013,04,14,04,59,2.60
2013,04,14,05,00,2.60
2013,04,14,05,01,2.60
2013,04,14,05,02,2.60
2013,04,14,05,03,2.60
2013,04,14,05,04,2.70
2013,04,14,05,05,2.70
2013,04,14,05,06,2.60
2013,04,14,05,07,2.60
2013,04,14,05,08,2.60
2013,04,14,05,09,2.60
2013,04,14,05,10,2.60
2013,04,14,05,11,2.60
2013,04,14,05,12,2.60
2013,04,14,05,13,2.60
2013,04,14,05,14,2.60
2013,04,14,05,15,2.60
2013,04,14,05,16,2.70
2013,04,14,05,17,2.70
2013,04,14,05,18,2.70
2013,04,14,05,19,2.70
2013,04,14,05,20,2.70
2013,04,14,05,21,2.70
2013,04,14,05,22,2.70
2013,04,14,05,23,2.70
2013,04,14,05,24,2.70
2013,04,14,05,25,2.70
2013,04,14,05,26,2.70
2013,04,14,05,27,2.70
2013,04,14,05,28,2.70
2013,04,14,05,29,2.70
2013,04,14,05,30,2.70
2013,04,14,05,31,2.70
2013,04,14,05,32,2.70
2013,04,14,05,33,2.70
2013,04,14,05,34,2.70
2013,04,14,05,35,2.70
2013,04,14,05,36,2.70
2013,04,14,05,37,2.70
2013,04,14,05,38,2.70
2013,04,14,05,39,2.70
2013,04,14,05,40,2.70
2013,04,14,05,41,2.70
2013,04,14,05,42,2.70
2013,04,14,05,43,2.70
2013,04,14,05,44,2.60
2013,04,14,05,45,2.60
2013,04,14,05,46,2.60
2013,04,14,05,47,2.70
2013,04,14,05,48,2.70
2013,04,14,05,49,2.70
2013,04,14,05,50,2.70
2013,04,14,05,51,2.70
2013,04,14,05,52,2.70
2013,04,14,05,53,2.70
2013,04,14,05,54,2.80
2013,04,14,05,55,2.80
2013,04,14,05,56,2.80
2013,04,14,05,57,2.80
2013,04,14,05,58,2.80
2013,04,14,05,59,2.80
2013,04,14,06,00,2.80
2013,04,14,06,01,2.80
2013,04,14,06,02,2.80
2013,04,14,06,03,2.80
2013,04,14,06,04,2.80
2013,04,14,06,05,2.80
2013,04,14,06,06,2.80
2013,04,14,06,07,2.80
2013,04,14,06,08,2.80
2013,04,14,06,09,2.80
2013,04,14,06,10,2.90
2013,04,14,06,11,2.90
2013,04,14,06,12,2.90
2013,04,14,06,13,2.90
2013,04,14,06,14,2.90
2013,04,14,06,15,2.90
2013,04,14,06,16,2.90
2013,04,14,06,17,2.90
2013,04,14,06,18,2.90
2013,04,14,06,19,2.90
2013,04,14,06,20,2.90
2013,04,14,06,21,2.90
2013,04,14,06,22,2.90
2013,04,14,06,23,2.90
2013,04,14,06,24,2.90
2013,04,14,06,25,2.90
2013,04,14,06,26,2.90
2013,04,14,06,27,2.90
2013,04,14,06,28,2.90
2013,04,14,06,29,2.90
2013,04,14,06,30,2.90
2013,04,14,06,31,2.90
2013,04,14,06,32,2.90
2013,04,14,06,33,2.90
2013,04,14,06,34,2.90
2013,04,14,06,35,2.90
2013,04,14,06,36,2.90
2013,04,14,06,37,2.90
2013,04,14,06,38,2.90
2013,04,14,06,39,2.90
2013,04,14,06,40,3.00
2013,04,14,06,41,3.00
2013,04,14,06,42,3.10
2013,04,14,06,43,3.10
2013,04,14,06,44,3.20
2013,04,14,06,45,3.20
2013,04,14,06,46,3.30
2013,04,14,06,47,3.30
2013,04,14,06,48,3.30
2013,04,14,06,49,3.40
2013,04,14,06,50,3.50
2013,04,14,06,51,3.60
2013,04,14,06,52,3.60
2013,04,14,06,53,3.70
2013,04,14,06,54,3.70
2013,04,14,06,55,3.70
2013,04,14,06,56,3.70
2013,04,14,06,57,3.80
2013,04,14,06,58,3.80
2013,04,14,06,59,3.80
2013,04,14,07,00,3.80
2013,04,14,07,01,3.80
2013,04,14,07,02,3.80
2013,04,14,07,03,3.70
2013,04,14,07,04,3.70
2013,04,14,07,05,3.70
2013,04,14,07,06,3.60
2013,04,14,07,07,3.60
2013,04,14,07,08,3.50
2013,04,14,07,09,3.40
2013,04,14,07,10,3.40
2013,04,14,07,11,3.40
2013,04,14,07,12,3.30
2013,04,14,07,13,3.30
2013,04,14,07,14,3.30
2013,04,14,07,15,3.30
2013,04,14,07,16,3.30
2013,04,14,07,17,3.30
2013,04,14,07,18,3.30
2013,04,14,07,19,3.40
2013,04,14,07,20,3.40
2013,04,14,07,21,3.50
2013,04,14,07,22,3.50
2013,04,14,07,23,3.60
2013,04,14,07,24,3.60
2013,04,14,07,25,3.70
2013,04,14,07,26,3.80
2013,04,14,07,27,3.80
2013,04,14,07,28,3.90
2013,04,14,07,29,3.90
2013,04,14,07,30,4.00
2013,04,14,07,31,4.00
2013,04,14,07,32,4.10
2013,04,14,07,33,4.10
2013,04,14,07,34,4.20
2013,04,14,07,35,4.20
2013,04,14,07,36,4.20
2013,04,14,07,37,4.20
2013,04,14,07,38,4.30
2013,04,14,07,39,4.30
2013,04,14,07,40,4.30
2013,04,14,07,41,4.30
2013,04,14,07,42,4.20
2013,04,14,07,43,4.20
2013,04,14,07,44,4.10
2013,04,14,07,45,4.00
2013,04,14,07,46,3.90
2013,04,14,07,47,3.80
2013,04,14,07,48,3.80
2013,04,14,07,49,3.70
2013,04,14,07,50,3.70
2013,04,14,07,51,3.70
2013,04,14,07,52,3.70
2013,04,14,07,53,3.70
2013,04,14,07,54,3.70
2013,04,14,07,55,3.70
2013,04,14,07,56,3.70
2013,04,14,07,57,3.70
2013,04,14,07,58,3.80
2013,04,14,07,59,3.80
2013,04,14,08,00,3.80
2013,04,14,08,01,3.80
2013,04,14,08,02,3.80
2013,04,14,08,03,3.80
2013,04,14,08,04,3.80
2013,04,14,08,05,3.80
2013,04,14,08,06,3.80
2013,04,14,08,07,3.80
2013,04,14,08,08,3.80
2013,04,14,08,09,3.90
2013,04,14,08,10,3.90
2013,04,14,08,11,3.90
2013,04,14,08,12,4.00
2013,04,14,08,13,4.00
2013,04,14,08,14,4.00
2013,04,14,08,15,4.10
2013,04,14,08,16,4.10
2013,04,14,08,17,4.10
2013,04,14,08,18,4.10
2013,04,14,08,19,4.10
2013,04,14,08,20,4.20
2013,04,14,08,21,4.20
2013,04,14,08,22,4.30
2013,04,14,08,23,4.30
2013,04,14,08,24,4.30
2013,04,14,08,25,4.40
2013,04,14,08,26,4.40
2013,04,14,08,27,4.50
2013,04,14,08,28,4.50
2013,04,14,08,29,4.60
2013,04,14,08,30,4.60
2013,04,14,08,31,4.60
2013,04,14,08,32,4.60
2013,04,14,08,33,4.70
2013,04,14,08,34,4.70
2013,04,14,08,35,4.70
2013,04,14,08,36,4.70
2013,04,14,08,37,4.70
2013,04,14,08,38,4.70
2013,04,14,08,39,4.80
2013,04,14,08,40,4.80
2013,04,14,08,41,4.80
2013,04,14,08,42,4.80
2013,04,14,08,43,4.80
2013,04,14,08,44,4.80
2013,04,14,08,45,4.80
2013,04,14,08,46,4.90
2013,04,14,08,47,4.90
2013,04,14,08,48,4.90
2013,04,14,08,49,5.00
2013,04,14,08,50,5.00
2013,04,14,08,51,5.00
2013,04,14,08,52,5.10
2013,04,14,08,53,5.10
2013,04,14,08,54,5.20
2013,04,14,08,55,5.20
2013,04,14,08,56,5.20
2013,04,14,08,57,5.30
2013,04,14,08,58,5.30
2013,04,14,08,59,5.40
2013,04,14,09,00,5.40
2013,04,14,09,01,5.40
2013,04,14,09,02,5.50
2013,04,14,09,03,5.50
2013,04,14,09,04,5.50
2013,04,14,09,05,5.60
2013,04,14,09,06,5.60
2013,04,14,09,07,5.60
2013,04,14,09,08,5.70
2013,04,14,09,09,5.70
2013,04,14,09,10,5.70
2013,04,14,09,11,5.80
2013,04,14,09,12,5.80
2013,04,14,09,13,5.80
2013,04,14,09,14,5.80
2013,04,14,09,15,5.80
2013,04,14,09,16,5.80
2013,04,14,09,17,5.90
2013,04,14,09,18,6.00
2013,04,14,09,19,6.00
2013,04,14,09,20,6.10
2013,04,14,09,21,6.10
2013,04,14,09,22,6.20
2013,04,14,09,23,6.20
2013,04,14,09,24,6.30
2013,04,14,09,25,6.40
2013,04,14,09,26,6.50
2013,04,14,09,27,6.60
2013,04,14,09,28,6.60
2013,04,14,09,29,6.70
2013,04,14,09,30,6.80
2013,04,14,09,31,6.80
2013,04,14,09,32,6.90
2013,04,14,09,33,6.90
2013,04,14,09,34,7.00
2013,04,14,09,35,7.10
2013,04,14,09,36,7.20
2013,04,14,09,37,7.20
2013,04,14,09,38,7.20
2013,04,14,09,39,7.20
2013,04,14,09,40,7.20
2013,04,14,09,41,7.10
2013,04,14,09,42,7.10
2013,04,14,09,43,7.00
2013,04,14,09,44,7.00
2013,04,14,09,45,6.90
2013,04,14,09,46,6.90
2013,04,14,09,47,6.90
2013,04,14,09,48,6.90
2013,04,14,09,49,6.90
2013,04,14,09,50,6.90
2013,04,14,09,51,6.90
2013,04,14,09,52,7.00
2013,04,14,09,53,7.00
2013,04,14,09,54,7.00
2013,04,14,09,55,7.00
2013,04,14,09,56,7.00
2013,04,14,09,57,7.00
2013,04,14,09,58,7.10
2013,04,14,09,59,7.10
2013,04,14,10,00,7.20
2013,04,14,10,01,7.20
2013,04,14,10,02,7.30
2013,04,14,10,03,7.30
2013,04,14,10,04,7.30
2013,04,14,10,05,7.30
2013,04,14,10,06,7.40
2013,04,14,10,07,7.40
2013,04,14,10,08,7.30
2013,04,14,10,09,7.20
2013,04,14,10,10,7.10
2013,04,14,10,11,7.00
2013,04,14,10,12,6.80
2013,04,14,10,13,6.70
2013,04,14,10,14,6.60
2013,04,14,10,15,6.50
2013,04,14,10,16,6.40
2013,04,14,10,17,6.30
2013,04,14,10,18,6.20
2013,04,14,10,19,6.20
2013,04,14,10,20,6.20
2013,04,14,10,21,6.10
2013,04,14,10,22,6.10
2013,04,14,10,23,6.10
2013,04,14,10,24,6.10
2013,04,14,10,25,6.10
2013,04,14,10,26,6.10
2013,04,14,10,27,6.10
2013,04,14,10,28,6.10
2013,04,14,10,29,6.20
2013,04,14,10,30,6.20
2013,04,14,10,31,6.30
2013,04,14,10,32,6.30
2013,04,14,10,33,6.40
2013,04,14,10,34,6.50
2013,04,14,10,35,6.50
2013,04,14,10,36,6.60
2013,04,14,10,37,6.60
2013,04,14,10,38,6.70
2013,04,14,10,39,6.80
2013,04,14,10,40,6.90
2013,04,14,10,41,7.00
2013,04,14,10,42,7.10
2013,04,14,10,43,7.20
2013,04,14,10,44,7.30
2013,04,14,10,45,7.30
2013,04,14,10,46,7.30
2013,04,14,10,47,7.30
2013,04,14,10,48,7.40
2013,04,14,10,49,7.40
2013,04,14,10,50,7.50
2013,04,14,10,51,7.50
2013,04,14,10,52,7.60
2013,04,14,10,53,7.60
2013,04,14,10,54,7.60
2013,04,14,10,55,7.60
2013,04,14,10,56,7.60
2013,04,14,10,57,7.50
2013,04,14,10,58,7.50
2013,04,14,10,59,7.40
2013,04,14,11,00,7.30
2013,04,14,11,01,7.30
2013,04,14,11,02,7.20
2013,04,14,11,03,7.20
2013,04,14,11,04,7.20
2013,04,14,11,05,7.20
2013,04,14,11,06,7.20
2013,04,14,11,07,7.20
2013,04,14,11,08,7.20
2013,04,14,11,09,7.20
2013,04,14,11,10,7.10
2013,04,14,11,11,7.10
2013,04,14,11,12,7.00
2013,04,14,11,13,7.00
2013,04,14,11,14,6.90
2013,04,14,11,15,6.80
2013,04,14,11,16,6.80
2013,04,14,11,17,6.70
2013,04,14,11,18,6.70
2013,04,14,11,19,6.70
2013,04,14,11,20,6.60
2013,04,14,11,21,6.60
2013,04,14,11,22,6.60
2013,04,14,11,23,6.60
2013,04,14,11,24,6.70
2013,04,14,11,25,6.70
2013,04,14,11,26,6.80
2013,04,14,11,27,6.80
2013,04,14,11,28,7.00
2013,04,14,11,29,7.00
2013,04,14,11,30,7.10
2013,04,14,11,31,7.10
2013,04,14,11,32,7.10
2013,04,14,11,33,7.20
2013,04,14,11,34,7.20
2013,04,14,11,35,7.20
2013,04,14,11,36,7.20
2013,04,14,11,37,7.20
2013,04,14,11,38,7.20
2013,04,14,11,39,7.20
2013,04,14,11,40,7.10
2013,04,14,11,41,7.00
2013,04,14,11,42,6.90
2013,04,14,11,43,6.90
2013,04,14,11,44,6.90
2013,04,14,11,45,6.90
2013,04,14,11,46,6.90
2013,04,14,11,47,6.90
2013,04,14,11,48,6.90
2013,04,14,11,49,6.90
2013,04,14,11,50,6.90
2013,04,14,11,51,6.90
2013,04,14,11,52,6.90
2013,04,14,11,53,7.00
2013,04,14,11,54,7.00
2013,04,14,11,55,7.10
2013,04,14,11,56,7.10
2013,04,14,11,57,7.20
2013,04,14,11,58,7.20
2013,04,14,11,59,7.20
2013,04,14,12,00,7.20
2013,04,14,12,01,7.30
2013,04,14,12,02,7.30
2013,04,14,12,03,7.30
2013,04,14,12,04,7.20
2013,04,14,12,05,7.20
2013,04,14,12,06,7.20
2013,04,14,12,07,7.10
2013,04,14,12,08,7.10
2013,04,14,12,09,7.10
2013,04,14,12,10,7.10
2013,04,14,12,11,7.10
2013,04,14,12,12,7.20
2013,04,14,12,13,7.20
2013,04,14,12,14,7.20
2013,04,14,12,15,7.10
2013,04,14,12,16,7.10
2013,04,14,12,17,7.20
2013,04,14,12,18,7.20
2013,04,14,12,19,7.20
2013,04,14,12,20,7.20
2013,04,14,12,21,7.20
2013,04,14,12,22,7.20
2013,04,14,12,23,7.30
2013,04,14,12,24,7.30
2013,04,14,12,25,7.30
2013,04,14,12,26,7.30
2013,04,14,12,27,7.30
2013,04,14,12,28,7.30
2013,04,14,12,29,7.20
2013,04,14,12,30,7.20
2013,04,14,12,31,7.20
2013,04,14,12,32,7.20
2013,04,14,12,33,7.20
2013,04,14,12,34,7.20
2013,04,14,12,35,7.20
2013,04,14,12,36,7.20
2013,04,14,12,37,7.20
2013,04,14,12,38,7.20
2013,04,14,12,39,7.20
2013,04,14,12,40,7.20
2013,04,14,12,41,7.20
2013,04,14,12,42,7.20
2013,04,14,12,43,7.20
2013,04,14,12,44,7.20
2013,04,14,12,45,7.20
2013,04,14,12,46,7.20
2013,04,14,12,47,7.20
2013,04,14,12,48,7.20
2013,04,14,12,49,7.30
2013,04,14,12,50,7.20
2013,04,14,12,51,7.20
2013,04,14,12,52,7.20
2013,04,14,12,53,7.20
2013,04,14,12,54,7.20
2013,04,14,12,55,7.20
2013,04,14,12,56,7.20
2013,04,14,12,57,7.20
2013,04,14,12,58,7.20
2013,04,14,12,59,7.10
2013,04,14,13,00,7.10
2013,04,14,13,01,7.00
2013,04,14,13,02,7.00
2013,04,14,13,03,7.00
2013,04,14,13,04,7.00
2013,04,14,13,05,6.90
2013,04,14,13,06,6.90
2013,04,14,13,07,7.00
2013,04,14,13,08,7.00
2013,04,14,13,09,7.00
2013,04,14,13,10,7.00
2013,04,14,13,11,7.10
2013,04,14,13,12,7.10
2013,04,14,13,13,7.20
2013,04,14,13,14,7.20
2013,04,14,13,15,7.20
2013,04,14,13,16,7.30
2013,04,14,13,17,7.30
2013,04,14,13,18,7.30
2013,04,14,13,19,7.40
2013,04,14,13,20,7.40
2013,04,14,13,21,7.40
2013,04,14,13,22,7.40
2013,04,14,13,23,7.50
2013,04,14,13,24,7.60
2013,04,14,13,25,7.50
2013,04,14,13,26,7.50
2013,04,14,13,27,7.50
2013,04,14,13,28,7.40
2013,04,14,13,29,7.30
2013,04,14,13,30,7.30
2013,04,14,13,31,7.40
2013,04,14,13,32,7.40
2013,04,14,13,33,7.40
2013,04,14,13,34,7.50
2013,04,14,13,35,7.50
2013,04,14,13,36,7.60
2013,04,14,13,37,7.60
2013,04,14,13,38,7.70
2013,04,14,13,39,7.70
2013,04,14,13,40,7.70
2013,04,14,13,41,7.70
2013,04,14,13,42,7.70
2013,04,14,13,43,7.70
2013,04,14,13,44,7.70
2013,04,14,13,45,7.70
2013,04,14,13,46,7.70
2013,04,14,13,47,7.70
2013,04,14,13,48,7.70
2013,04,14,13,49,7.70
2013,04,14,13,50,7.70
2013,04,14,13,51,7.80
2013,04,14,13,52,7.80
2013,04,14,13,53,7.70
2013,04,14,13,54,7.70
2013,04,14,13,55,7.70
2013,04,14,13,56,7.70
2013,04,14,13,57,7.70
2013,04,14,13,58,7.70
2013,04,14,13,59,7.70
2013,04,14,14,00,7.70
2013,04,14,14,01,7.70
2013,04,14,14,02,7.70
2013,04,14,14,03,7.70
2013,04,14,14,04,7.80
2013,04,14,14,05,7.70
2013,04,14,14,06,7.80
2013,04,14,14,07,7.80
2013,04,14,14,08,7.80
2013,04,14,14,09,7.90
2013,04,14,14,10,7.90
2013,04,14,14,11,7.90
2013,04,14,14,12,7.90
2013,04,14,14,13,7.90
2013,04,14,14,14,7.80
2013,04,14,14,15,7.80
2013,04,14,14,16,7.80
2013,04,14,14,17,7.80
2013,04,14,14,18,7.80
2013,04,14,14,19,7.80
2013,04,14,14,20,7.80
2013,04,14,14,21,7.80
2013,04,14,14,22,7.80
2013,04,14,14,23,7.90
2013,04,14,14,24,7.90
2013,04,14,14,25,7.90
2013,04,14,14,26,7.90
2013,04,14,14,27,8.00
2013,04,14,14,28,8.00
2013,04,14,14,29,8.00
2013,04,14,14,30,8.00
2013,04,14,14,31,8.00
2013,04,14,14,32,8.00
2013,04,14,14,33,8.00
2013,04,14,14,34,8.00
2013,04,14,14,35,8.00
2013,04,14,14,36,8.00
2013,04,14,14,37,8.00
2013,04,14,14,38,8.00
2013,04,14,14,39,8.10
2013,04,14,14,40,8.10
2013,04,14,14,41,8.10
2013,04,14,14,42,8.10
2013,04,14,14,43,8.10
2013,04,14,14,44,8.10
2013,04,14,14,45,8.10
2013,04,14,14,46,8.10
2013,04,14,14,47,8.10
2013,04,14,14,48,8.20
2013,04,14,14,49,8.20
2013,04,14,14,50,8.20
2013,04,14,14,51,8.20
2013,04,14,14,52,8.20
2013,04,14,14,53,8.20
2013,04,14,14,54,8.20
2013,04,14,14,55,8.30
2013,04,14,14,56,8.30
2013,04,14,14,57,8.30
2013,04,14,14,58,8.30
2013,04,14,14,59,8.30
2013,04,14,15,00,8.30
2013,04,14,15,01,8.40
2013,04,14,15,02,8.40
2013,04,14,15,03,8.40
2013,04,14,15,04,8.40
2013,04,14,15,05,8.40
2013,04,14,15,06,8.40
2013,04,14,15,07,8.40
2013,04,14,15,08,8.50
2013,04,14,15,09,8.50
2013,04,14,15,10,8.60
2013,04,14,15,11,8.70
2013,04,14,15,12,8.70
2013,04,14,15,13,8.70
2013,04,14,15,14,8.70
2013,04,14,15,15,8.70
2013,04,14,15,16,8.70
2013,04,14,15,17,8.70
2013,04,14,15,18,8.70
2013,04,14,15,19,8.70
2013,04,14,15,20,8.70
2013,04,14,15,21,8.70
2013,04,14,15,22,8.70
2013,04,14,15,23,8.70
2013,04,14,15,24,8.70
2013,04,14,15,25,8.70
2013,04,14,15,26,8.70
2013,04,14,15,27,8.70
2013,04,14,15,28,8.80
2013,04,14,15,29,8.80
2013,04,14,15,30,8.80
2013,04,14,15,31,8.80
2013,04,14,15,32,8.80
2013,04,14,15,33,8.80
2013,04,14,15,34,8.80
2013,04,14,15,35,8.80
2013,04,14,15,36,8.90
2013,04,14,15,37,8.90
2013,04,14,15,38,8.90
2013,04,14,15,39,8.90
2013,04,14,15,40,8.80
2013,04,14,15,41,8.80
2013,04,14,15,42,8.80
2013,04,14,15,43,8.80
2013,04,14,15,44,8.80
2013,04,14,15,45,8.80
2013,04,14,15,46,8.80
2013,04,14,15,47,8.80
2013,04,14,15,48,8.80
2013,04,14,15,49,8.80
2013,04,14,15,50,8.70
2013,04,14,15,51,8.70
2013,04,14,15,52,8.70
2013,04,14,15,53,8.70
2013,04,14,15,54,8.80
2013,04,14,15,55,8.80
2013,04,14,15,56,8.90
2013,04,14,15,57,8.90
2013,04,14,15,58,9.00
2013,04,14,15,59,9.10
2013,04,14,16,00,9.10
2013,04,14,16,01,9.20
2013,04,14,16,02,9.30
2013,04,14,16,03,9.30
2013,04,14,16,04,9.30
2013,04,14,16,05,9.30
2013,04,14,16,06,9.30
2013,04,14,16,07,9.30
2013,04,14,16,08,9.30
2013,04,14,16,09,9.30
2013,04,14,16,10,9.30
2013,04,14,16,11,9.30
2013,04,14,16,12,9.20
2013,04,14,16,13,9.20
2013,04,14,16,14,9.20
2013,04,14,16,15,9.10
2013,04,14,16,16,9.10
2013,04,14,16,17,9.10
2013,04,14,16,18,9.00
2013,04,14,16,19,9.00
2013,04,14,16,20,9.00
2013,04,14,16,21,9.00
2013,04,14,16,22,9.10
2013,04,14,16,23,9.10
2013,04,14,16,24,9.10
2013,04,14,16,25,9.10
2013,04,14,16,26,9.10
2013,04,14,16,27,9.10
2013,04,14,16,28,9.10
2013,04,14,16,29,9.00
2013,04,14,16,30,9.10
2013,04,14,16,31,9.10
2013,04,14,16,32,9.10
2013,04,14,16,33,9.10
2013,04,14,16,34,9.00
2013,04,14,16,35,9.00
2013,04,14,16,36,8.90
2013,04,14,16,37,8.90
2013,04,14,16,38,8.90
2013,04,14,16,39,9.00
2013,04,14,16,40,9.00
2013,04,14,16,41,9.10
2013,04,14,16,42,9.10
2013,04,14,16,43,9.10
2013,04,14,16,44,9.20
2013,04,14,16,45,9.30
2013,04,14,16,46,9.40
2013,04,14,16,47,9.40
2013,04,14,16,48,9.40
2013,04,14,16,49,9.40
2013,04,14,16,50,9.30
2013,04,14,16,51,9.30
2013,04,14,16,52,9.30
2013,04,14,16,53,9.30
2013,04,14,16,54,9.20
2013,04,14,16,55,9.20
2013,04,14,16,56,9.10
2013,04,14,16,57,9.10
2013,04,14,16,58,9.10
2013,04,14,16,59,9.20
2013,04,14,17,00,9.30
2013,04,14,17,01,9.50
2013,04,14,17,02,9.60
2013,04,14,17,03,9.70
2013,04,14,17,04,9.70
2013,04,14,17,05,9.70
2013,04,14,17,06,9.70
2013,04,14,17,07,9.70
2013,04,14,17,08,9.70
2013,04,14,17,09,9.70
2013,04,14,17,10,9.70
2013,04,14,17,11,9.70
2013,04,14,17,12,9.70
2013,04,14,17,13,9.60
2013,04,14,17,14,9.50
2013,04,14,17,15,9.40
2013,04,14,17,16,9.40
2013,04,14,17,17,9.30
2013,04,14,17,18,9.30
2013,04,14,17,19,9.20
2013,04,14,17,20,9.20
2013,04,14,17,21,9.10
2013,04,14,17,22,9.10
2013,04,14,17,23,9.00
2013,04,14,17,24,9.00
2013,04,14,17,25,9.00
2013,04,14,17,26,9.00
2013,04,14,17,27,9.10
2013,04,14,17,28,9.10
2013,04,14,17,29,9.20
2013,04,14,17,30,9.20
2013,04,14,17,31,9.30
2013,04,14,17,32,9.40
2013,04,14,17,33,9.50
2013,04,14,17,34,9.50
2013,04,14,17,35,9.50
2013,04,14,17,36,9.50
2013,04,14,17,37,9.40
2013,04,14,17,38,9.40
2013,04,14,17,39,9.40
2013,04,14,17,40,9.40
2013,04,14,17,41,9.40
2013,04,14,17,42,9.40
2013,04,14,17,43,9.50
2013,04,14,17,44,9.50
2013,04,14,17,45,9.50
2013,04,14,17,46,9.50
2013,04,14,17,47,9.40
2013,04,14,17,48,9.40
2013,04,14,17,49,9.40
2013,04,14,17,50,9.40
2013,04,14,17,51,9.40
2013,04,14,17,52,9.40
2013,04,14,17,53,9.40
2013,04,14,17,54,9.30
2013,04,14,17,55,9.30
2013,04,14,17,56,9.20
2013,04,14,17,57,9.20
2013,04,14,17,58,9.20
2013,04,14,17,59,9.20
2013,04,14,18,00,9.20
2013,04,14,18,01,9.20
2013,04,14,18,02,9.10
2013,04,14,18,03,9.00
2013,04,14,18,04,9.00
2013,04,14,18,05,8.90
2013,04,14,18,06,8.90
2013,04,14,18,07,8.90
2013,04,14,18,08,8.80
2013,04,14,18,09,8.80